CDT,Max TemperatureF,Mean TemperatureF,Min TemperatureF,Max Dew PointF,MeanDew PointF,Min DewpointF,Max Humidity, Mean Humidity, Min Humidity, Max Sea Level PressureIn, Mean Sea Level PressureIn, Min Sea Level PressureIn, Max VisibilityMiles, Mean VisibilityMiles, Min VisibilityMiles, Max Wind SpeedMPH, Mean Wind SpeedMPH, Max Gust SpeedMPH,PrecipitationIn, CloudCover, Events, WindDirDegrees
2012-10-1,66,54,42,48,44,39,93,70,43,29.96,29.89,29.84,10,9,1,10,4,,0.00,0,,202
2012-10-2,60,53,46,52,49,43,94,79,68,29.96,29.92,29.86,10,10,2,15,5,17,0.00,4,,36
2012-10-3,60,52,44,55,48,43,100,94,82,30.00,29.97,29.95,10,2,0,8,2,,0.00,8,,7
2012-10-4,64,56,51,55,53,48,94,82,73,29.98,29.94,29.92,10,7,0,13,6,,0.00,3,,194
2012-10-5,51,46,39,28,25,21,56,43,38,29.96,29.94,29.91,10,10,10,23,18,32,0.00,4,,268
2012-10-6,46,42,39,30,27,25,70,58,46,30.15,30.02,29.92,10,10,10,18,15,25,0.00,7,,312
2012-10-7,48,42,37,28,22,16,61,46,30,30.14,30.08,30.02,10,10,10,15,9,21,0.00,3,,266
2012-10-8,59,45,33,39,27,19,60,47,29,30.02,29.92,29.80,10,10,10,24,13,33,0.00,4,,193
2012-10-9,53,47,41,46,36,28,100,67,38,29.80,29.77,29.71,10,10,7,18,15,28,0.08,5,,229
2012-10-10,44,40,35,30,24,18,75,54,36,30.06,29.99,29.86,10,10,10,21,13,26,0.00,4,,274
2012-10-11,50,44,37,34,28,21,65,53,37,30.28,30.02,29.87,10,10,10,20,12,28,0.00,5,,278
2012-10-12,46,38,30,36,27,16,81,63,29,30.47,30.37,30.26,10,10,10,16,7,16,0.00,0,,259
2012-10-13,50,46,41,48,44,34,100,90,70,30.25,29.96,29.75,10,6,1,20,8,29,1.18,7,,175
2012-10-14,50,47,44,50,46,39,100,92,81,29.77,29.60,29.46,10,9,2,28,11,33,1.58,8,,12
2012-10-15,48,42,37,39,35,32,93,76,57,29.94,29.84,29.66,10,10,10,22,13,30,0.03,5,,321
2012-10-16,53,46,39,48,44,36,94,83,76,29.91,29.73,29.51,10,10,7,22,12,32,0.01,4,,170
2012-10-17,60,54,48,54,49,46,100,85,67,29.51,29.41,29.28,10,8,2,24,13,33,0.17,3,,165
2012-10-18,55,48,42,54,45,39,100,89,76,29.48,29.31,29.13,10,9,2,22,13,32,0.28,7,,178
2012-10-19,48,45,42,45,42,39,93,89,81,29.60,29.54,29.48,10,10,6,10,6,,0.28,7,,92
2012-10-20,55,48,42,46,43,37,100,82,51,29.88,29.74,29.59,10,10,7,12,7,,0.02,4,,319
2012-10-21,57,47,37,46,42,36,100,82,54,30.02,29.97,29.88,10,8,0,16,6,18,0.00,0,,193
2012-10-22,60,52,44,52,49,43,100,86,68,30.02,29.98,29.96,10,8,0,12,5,,0.00,4,,63
2012-10-23,57,52,48,55,53,46,100,93,82,29.96,29.93,29.90,10,5,0,12,7,17,0.04,7,,105
2012-10-24,64,58,53,61,56,52,100,93,82,29.92,29.87,29.77,10,4,0,18,10,25,0.00,7,,161
2012-10-25,62,52,42,61,52,36,94,86,76,29.93,29.67,29.53,10,9,4,25,17,32,0.36,6,Thunderstorm,201
2012-10-26,44,40,37,34,27,21,81,60,46,30.31,30.20,29.96,10,10,10,18,14,29,0.03,2,,290
2012-10-27,42,38,33,25,20,16,65,49,36,30.34,30.31,30.28,10,10,10,13,7,18,0.00,2,,335
2012-10-28,44,38,33,28,24,19,70,55,46,30.38,30.34,30.32,10,10,10,15,7,21,0.00,0,,29
2012-10-29,44,40,35,34,28,21,87,62,42,30.34,30.28,30.12,10,10,10,25,12,34,0.00,1,,13
2012-10-30,42,40,37,30,27,21,70,61,49,30.11,29.91,29.80,10,10,10,33,27,46,0.00,6,,357
2012-10-31,44,38,33,30,28,25,75,67,53,29.81,29.78,29.75,10,10,10,29,22,38,0.00,6,,338